Location: Unspecified
(0.0000°N, 0.0000°E)
Time: 14:49:57
(UTC+00:00)

THORAD DELTA 1 DEB - Pass Details

Date: 23 February 2026
Orbit: 1442 x 1568 km, 101.4° (Epoch: 22 February)

Event Time Altitude Azimuth Distance (km) Brightness Sun altitude
Exits shadow 20:01:24 32° 125° (SE) 2,443 ? -26.6°
Drops below altitude 10° 20:07:31 10° 167° (SSE) 3,736 ? -28.1°
Sets 20:10:41 0° 175° (S) 4,707 ? -28.9°
